Weather History for Baker, MT

Change the Weather History Date:

Friday, November 30, 2012

  Actual Average Record
Temperature  
Mean Temperature 36 °F -  
Max Temperature 48 °F 26 °F 55 °F (1999)
Min Temperature 24 °F 18 °F -6 °F (2006)
Degree Days  
Heating Degree Days 29    
Moisture  
Dew Point 25 °F    
Average Humidity 73    
Maximum Humidity 84    
Minimum Humidity 52    
Precipitation  
Precipitation 0.00 in - - ()
Sea Level Pressure  
Sea Level Pressure 29.80 in    
Wind  
Wind Speed 5 mph (ESE)    
Max Wind Speed 10 mph    
Max Gust Speed -    
Visibility 10 miles    
Events      
Averages and records for this station are not official NWS values.
T = Trace of Precipitation, MM = Missing Value Source: NWS Daily Summary

Daily Weather History Graph

Daily Weather History Graph

Search for Another Location

Airport:

Trip Planner

Search our weather history database for the weather conditions in past years. The results will help you decide how hot, cold, wet, or windy it might be!

Date:

Astronomy

Nov. 30, 2012 Rise Set
Actual Time 7:19 AM MST 4:12 PM MST
Civil Twilight 6:45 AM MST 4:46 PM MST
Nautical Twilight 6:07 AM MST 5:24 PM MST
Astronomical Twilight 5:31 AM MST 6:00 PM MST
Moon 6:10 PM MST (11/30) 8:52 AM MST (11/30)
Length of Visible Light 10h 01m
Length of Day
8h 53m
Waning Gibbous, 96% of the Moon is Illuminated
Nov 30
Waning Gibbous
Dec 6
Last Quarter
Dec 13
New
Dec 19
First Quarter
Dec 28
Full

Hourly Weather History & Observations

Time (MST) Temp. Windchill Dew Point Humidity Pressure Visibility Wind Dir Wind Speed Gust Speed Precip Events Conditions
12:51 AM 25.0 °F 20.7 °F 19.9 °F 81% 29.98 in 10.0 mi East 3.5 mph - N/A   Clear
1:51 AM 28.0 °F - 23.0 °F 81% 29.94 in 10.0 mi Calm Calm - N/A   Clear
2:51 AM 27.0 °F 20.5 °F 21.9 °F 81% 29.93 in 10.0 mi SE 5.8 mph - N/A   Clear
3:51 AM 26.1 °F 17.6 °F 21.0 °F 81% 29.92 in 10.0 mi ESE 8.1 mph - N/A   Clear
4:51 AM 24.1 °F 16.0 °F 19.9 °F 84% 29.93 in 10.0 mi East 6.9 mph - N/A   Clear
5:51 AM 27.0 °F 19.5 °F 21.9 °F 81% 29.92 in 10.0 mi East 6.9 mph - N/A   Clear
6:51 AM 27.0 °F 18.0 °F 21.9 °F 81% 29.91 in 10.0 mi East 9.2 mph - N/A   Clear
7:51 AM 27.0 °F 20.5 °F 21.9 °F 81% 29.89 in 10.0 mi East 5.8 mph - N/A   Clear
8:51 AM 32.0 °F - 27.0 °F 82% 29.86 in 10.0 mi Calm Calm - N/A   Clear
9:51 AM 34.0 °F 27.2 °F 28.0 °F 79% 29.86 in 10.0 mi East 8.1 mph - N/A   Clear
10:51 AM 39.0 °F 32.3 °F 30.9 °F 73% 29.82 in 10.0 mi ESE 10.4 mph - N/A   Clear
11:51 AM 46.9 °F - 30.9 °F 54% 29.77 in 10.0 mi SE 5.8 mph - N/A   Clear
12:51 PM 48.0 °F - 30.9 °F 52% 29.74 in 10.0 mi SE 8.1 mph - N/A   Clear
1:51 PM 46.0 °F 41.4 °F 30.0 °F 54% 29.70 in 10.0 mi SE 9.2 mph - N/A   Clear
3:51 PM 42.1 °F 38.4 °F 28.0 °F 58% 29.69 in 10.0 mi SE 5.8 mph - N/A   Clear
4:51 PM 37.9 °F 33.5 °F 27.0 °F 65% 29.70 in 10.0 mi East 5.8 mph - N/A   Clear
5:51 PM 37.0 °F 29.8 °F 26.1 °F 65% 29.68 in 10.0 mi SE 10.4 mph - N/A   Mostly Cloudy
6:51 PM 34.0 °F 28.8 °F 25.0 °F 70% 29.69 in 10.0 mi SSE 5.8 mph - N/A   Mostly Cloudy
7:51 PM 30.9 °F - 23.0 °F 72% 29.72 in 10.0 mi Calm Calm - N/A   Clear
8:51 PM 28.9 °F - 23.0 °F 78% 29.70 in 10.0 mi Calm Calm - N/A   Clear
9:51 PM 28.9 °F - 23.0 °F 78% 29.70 in 10.0 mi Calm Calm - N/A   Clear
10:51 PM 30.0 °F - 23.0 °F 75% 29.70 in 10.0 mi Calm Calm - N/A   Clear
11:51 PM 28.0 °F - 21.9 °F 78% 29.70 in 10.0 mi Calm Calm - N/A   Clear